FENGYUN 1C DEB, 30218

Orbit data source: Space-Track

FENGYUN 1C DEB, 30218 is space debris in SSO originally from a launch on Mon, 10 May 1999 UTC launched from the Taiyaun Space Center, China (TSC). Fengyun 1C debris stems from the Chinese weather satellite Fengyun-1C, which was intentionally destroyed by a Chinese anti-satellite missile in 2007. This event dramatically increased the amount of space debris, with thousands of trackable fragments posing hazards to satellites and human spaceflight. The Fengyun 1C debris cloud has become a focal point in discussions about space sustainability and the need for international regulations to prevent the creation of new debris.

Loading next visibility...
Identifier
30218, 1999-025WB
Orbit
SSO
Country
Flag of CNCN / PRC
Related business
Manufacturer
Unknown
Mission
Spacecraft
Bus & Motor
Unknown
Mass
Unknown
Launch date (UTC)
1999-05-10 (27 years ago)
Launch vehicle
Unknown
Launch site
Taiyaun Space Center, China (TSC)
Object type
Payload
Rocket body
Debris
Shape & HBR
Unknown shape, 0.1 m
Radar Cross Section
Small (<0.1 m²)

Expand to show TLE details & history
Last TLE update: 16 hours ago

TLE from 16 hours ago
0 FENGYUN 1C DEB
1 30218U 99025WB  26062.76751866  .00005716  00000-0  21813-2 0  9997
2 30218  98.9799 159.6428 0066674  21.3556 129.8917 14.29945513982664
Epoch: 2026-03-03T18:25Z
TLE epoch observation values (Epoch: 2026-03-03T18:25:13.612Z)
Latitude
27.83679°
Longitude
-93.44442°
Altitude
826.18 km
Speed
7.426 km/s
True Right ascension
22h 57m 36s
True Declination
27° 41' 47"
Sunlit
Object was in daylight at epoch
Visualization orbit readout
Latitude
Unknown
Longitude
Unknown
Altitude
Unknown
Speed
Unknown
Apparent Right ascension
Unknown
Apparent Declination
Unknown
Sunlit
N/A
Visualization observer readout
Local Sidereal Time
14:18:27
Azimuth
Unknown
Elevation
Unknown
Doppler factor
Unknown
Orbital elements
Apogee altitude
836.858 km
Perigee altitude
741.285 km
Semi-major axis
7,167.208 km
Eccentricity
0.00667
Inclination
98.9799°
RAAN
159.6428°
Arg. of periapsis
21.3556°
True anomaly
130.47478°
Mean anomaly
129.8917°
Eccentric anomaly
130.18355°
Mean motion
3.57699 °/min
Orbital period
100.64 mins
BSTAR
0.0021813
Loading maneuver chart data...
Computing Atmospheric mass density...
Loading historical data...
Loading historical data...
Loading historical data...
Loading historical data...
Loading historical data...
Loading historical data...
Loading historical data...

Documentation

Showing up to 5 results
|